BCS5258 EDDP-LHBP

Flight info

Callsign BCS5258
Flight time 1h 3m
Altitude 35000
Route DRN1L DRN T620 LALUK DCT TUMKA DCT NIT DCT ANEXA ANEXA2T
Aircraft B763/H-SDE3FGHIM3RWXY/LB1

Departure

Time 2026-05-06 07:15
Airport Leipzig/Halle Airport (EDDP)

Arrival

Time 2026-05-06 08:18
Airport Budapest Liszt Ferenc International Airport (LHBP)
Time Latitude Longitude Altitude Speed Heading
2026-05-06 06:45 51.40959 12.24838 446 ft 0 kts 85°
2026-05-06 07:04 51.40957 12.24808 446 ft 3 kts 85°
2026-05-06 07:04 51.40955 12.24769 446 ft 3 kts 84°
2026-05-06 07:04 51.40952 12.24729 446 ft 3 kts 84°
2026-05-06 07:04 51.40950 12.24692 446 ft 2 kts 70°
2026-05-06 07:05 51.40939 12.24667 446 ft 1 kts 29°
2026-05-06 07:05 51.40923 12.24665 445 ft 3 kts 347°
2026-05-06 07:05 51.40910 12.24669 445 ft 0 kts 352°
2026-05-06 07:09 51.40938 12.24663 446 ft 6 kts 352°
2026-05-06 07:09 51.40996 12.24656 448 ft 10 kts 356°
2026-05-06 07:09 51.41079 12.24662 450 ft 11 kts 29°
2026-05-06 07:09 51.41103 12.24781 450 ft 12 kts 85°
2026-05-06 07:10 51.41110 12.24927 450 ft 14 kts 85°
2026-05-06 07:10 51.41117 12.25091 451 ft 15 kts 85°
2026-05-06 07:10 51.41125 12.25252 455 ft 14 kts 85°
2026-05-06 07:10 51.41132 12.25404 458 ft 13 kts 86°
2026-05-06 07:11 51.41139 12.25548 461 ft 12 kts 82°
2026-05-06 07:11 51.41185 12.25624 464 ft 8 kts
2026-05-06 07:11 51.41245 12.25621 465 ft 8 kts 356°
2026-05-06 07:11 51.41253 12.25620 465 ft 0 kts 356°
2026-05-06 07:12 51.41256 12.25620 465 ft 1 kts 356°
2026-05-06 07:12 51.41279 12.25617 466 ft 5 kts 355°
2026-05-06 07:12 51.41327 12.25605 467 ft 8 kts 347°
2026-05-06 07:13 51.41385 12.25563 467 ft 8 kts 308°
2026-05-06 07:13 51.41395 12.25484 466 ft 0 kts 269°
2026-05-06 07:14 51.41395 12.25467 465 ft 7 kts 269°
2026-05-06 07:14 51.41383 12.25223 460 ft 40 kts 266°
2026-05-06 07:14 51.41352 12.24547 455 ft 80 kts 265°
2026-05-06 07:14 51.41299 12.23429 466 ft 120 kts 266°
2026-05-06 07:15 51.41232 12.21870 542 ft 162 kts 268°
2026-05-06 07:15 51.41139 12.20121 1290 ft 159 kts 265°
2026-05-06 07:15 51.41061 12.18353 2070 ft 166 kts 265°
2026-05-06 07:15 51.40974 12.16497 2868 ft 173 kts 264°
2026-05-06 07:16 51.40885 12.14588 3639 ft 176 kts 265°
2026-05-06 07:16 51.40793 12.12635 4389 ft 181 kts 264°
2026-05-06 07:16 51.40657 12.10623 5121 ft 190 kts 252°
2026-05-06 07:16 51.39928 12.08915 5908 ft 198 kts 213°
2026-05-06 07:17 51.38676 12.07999 6680 ft 206 kts 203°
2026-05-06 07:17 51.37327 12.07125 7400 ft 213 kts 201°
2026-05-06 07:17 51.35854 12.06918 8182 ft 223 kts 169°
2026-05-06 07:17 51.34353 12.07688 8991 ft 238 kts 165°
2026-05-06 07:18 51.32762 12.08538 9761 ft 247 kts 165°
2026-05-06 07:18 51.31147 12.09426 10499 ft 247 kts 165°
2026-05-06 07:18 51.29533 12.10325 11237 ft 254 kts 165°
2026-05-06 07:18 51.27825 12.11281 12018 ft 267 kts 165°
2026-05-06 07:19 51.26053 12.12280 12789 ft 281 kts 165°
2026-05-06 07:19 51.24177 12.13340 13555 ft 294 kts 165°
2026-05-06 07:19 51.22213 12.14453 14331 ft 307 kts 164°
2026-05-06 07:19 51.20192 12.15599 15099 ft 312 kts 164°
2026-05-06 07:20 51.18156 12.16755 15830 ft 312 kts 164°
2026-05-06 07:20 51.16139 12.17897 16579 ft 314 kts 164°
2026-05-06 07:20 51.14070 12.19067 17337 ft 319 kts 164°
2026-05-06 07:20 51.11966 12.20255 18085 ft 322 kts 164°
2026-05-06 07:21 51.09869 12.21438 18858 ft 324 kts 164°
2026-05-06 07:21 51.07744 12.22636 19645 ft 327 kts 164°
2026-05-06 07:21 51.05617 12.23923 20425 ft 333 kts 156°
2026-05-06 07:21 51.03710 12.26024 21249 ft 342 kts 138°
2026-05-06 07:22 51.02249 12.29016 22094 ft 352 kts 121°
2026-05-06 07:22 51.01374 12.32695 22945 ft 360 kts 103°
2026-05-06 07:22 51.01192 12.36621 23795 ft 366 kts 89°
2026-05-06 07:22 51.01333 12.40630 24611 ft 366 kts 90°
2026-05-06 07:23 51.01406 12.44655 25418 ft 366 kts 91°
2026-05-06 07:23 51.01456 12.48677 26209 ft 364 kts 92°
2026-05-06 07:23 51.01492 12.52627 26903 ft 363 kts 92°
2026-05-06 07:23 51.01519 12.56658 27424 ft 367 kts 92°
2026-05-06 07:24 51.01540 12.60764 27741 ft 377 kts 92°
2026-05-06 07:24 51.01559 12.64928 28024 ft 386 kts 92°
2026-05-06 07:24 51.01576 12.69241 28309 ft 396 kts 93°
2026-05-06 07:24 51.01591 12.73633 28589 ft 405 kts 93°
2026-05-06 07:25 51.01605 12.78109 28872 ft 413 kts 93°
2026-05-06 07:25 51.01617 12.82688 29149 ft 422 kts 93°
2026-05-06 07:25 51.01628 12.87431 29430 ft 430 kts 93°
2026-05-06 07:25 51.01637 12.92190 29699 ft 437 kts 93°
2026-05-06 07:26 51.01644 12.97030 29976 ft 444 kts 93°
2026-05-06 07:26 51.01649 13.01927 30249 ft 451 kts 93°
2026-05-06 07:26 51.01653 13.06940 30524 ft 457 kts 93°
2026-05-06 07:26 51.01654 13.12008 30791 ft 463 kts 93°
2026-05-06 07:27 51.01652 13.17106 31026 ft 468 kts 93°
2026-05-06 07:27 51.01649 13.22320 31254 ft 474 kts 93°
2026-05-06 07:27 51.01642 13.27519 31479 ft 478 kts 93°
2026-05-06 07:27 51.01635 13.32844 31703 ft 483 kts 93°
2026-05-06 07:28 51.01623 13.38165 31929 ft 487 kts 93°
2026-05-06 07:28 51.01432 13.43516 32157 ft 486 kts 102°
2026-05-06 07:28 50.99523 13.53644 32644 ft 479 kts 121°
2026-05-06 07:29 50.97852 13.58172 32889 ft 475 kts 130°
2026-05-06 07:29 50.95760 13.62185 33139 ft 469 kts 139°
2026-05-06 07:29 50.93338 13.65556 33362 ft 464 kts 148°
2026-05-06 07:29 50.90790 13.68679 33577 ft 467 kts 143°
2026-05-06 07:30 50.88526 13.72343 33820 ft 472 kts 135°
2026-05-06 07:30 50.86456 13.76384 34062 ft 471 kts 134°
2026-05-06 07:30 50.84401 13.80359 34295 ft 470 kts 134°
2026-05-06 07:30 50.82340 13.84331 34514 ft 470 kts 134°
2026-05-06 07:31 50.80224 13.88301 34687 ft 467 kts 137°
2026-05-06 07:31 50.77950 13.91882 34761 ft 463 kts 141°
2026-05-06 07:31 50.73296 13.99017 34757 ft 473 kts 140°
2026-05-06 07:32 50.68603 14.06219 34774 ft 473 kts 140°
2026-05-06 07:32 50.63909 14.13403 34760 ft 471 kts 140°
2026-05-06 07:33 50.59252 14.20511 34777 ft 471 kts 141°
2026-05-06 07:33 50.54535 14.27689 34763 ft 471 kts 141°
2026-05-06 07:34 50.49863 14.34779 34772 ft 472 kts 141°
2026-05-06 07:34 50.45146 14.41917 34774 ft 470 kts 141°
2026-05-06 07:35 50.40453 14.48997 34794 ft 470 kts 141°
2026-05-06 07:35 50.35741 14.56084 34783 ft 471 kts 141°
2026-05-06 07:36 50.31030 14.63151 34789 ft 470 kts 141°
2026-05-06 07:36 50.26336 14.70172 34779 ft 469 kts 142°
2026-05-06 07:37 50.21628 14.77193 34784 ft 469 kts 142°
2026-05-06 07:37 50.16902 14.84220 34782 ft 471 kts 142°
2026-05-06 07:38 50.12202 14.91191 34779 ft 471 kts 142°
2026-05-06 07:38 50.07463 14.98196 34786 ft 473 kts 142°
2026-05-06 07:39 50.02699 15.05218 34781 ft 475 kts 142°
2026-05-06 07:39 49.97913 15.12256 34793 ft 474 kts 142°
2026-05-06 07:40 49.93150 15.19238 34796 ft 472 kts 142°
2026-05-06 07:40 49.88380 15.26211 34814 ft 471 kts 142°
2026-05-06 07:41 49.83641 15.33117 34807 ft 472 kts 142°
2026-05-06 07:41 49.78860 15.40066 34801 ft 471 kts 142°
2026-05-06 07:42 49.74095 15.46973 34809 ft 472 kts 142°
2026-05-06 07:42 49.69326 15.53864 34817 ft 473 kts 142°
2026-05-06 07:43 49.64535 15.60770 34811 ft 471 kts 142°
2026-05-06 07:43 49.59751 15.67643 34817 ft 473 kts 143°
2026-05-06 07:44 49.54939 15.74539 34815 ft 474 kts 143°
2026-05-06 07:44 49.50148 15.81386 34813 ft 473 kts 143°
2026-05-06 07:45 49.45334 15.88246 34821 ft 474 kts 142°
2026-05-06 07:45 49.40565 15.95254 34821 ft 479 kts 136°
2026-05-06 07:46 49.36421 16.03261 34818 ft 481 kts 133°
2026-05-06 07:46 49.32312 16.11261 34829 ft 480 kts 133°
2026-05-06 07:47 49.28166 16.19313 34831 ft 483 kts 133°
2026-05-06 07:47 49.24014 16.27359 34833 ft 482 kts 133°
2026-05-06 07:48 49.19882 16.35341 34835 ft 483 kts 133°
2026-05-06 07:48 49.15720 16.43357 34833 ft 485 kts 133°
2026-05-06 07:49 49.11514 16.51434 34833 ft 485 kts 133°
2026-05-06 07:49 49.07325 16.59454 34831 ft 486 kts 133°
2026-05-06 07:50 49.03125 16.67471 34821 ft 487 kts 134°
2026-05-06 07:50 48.98922 16.75468 34827 ft 487 kts 133°
2026-05-06 07:51 48.94686 16.83506 34827 ft 487 kts 133°
2026-05-06 07:51 48.90468 16.91484 34834 ft 487 kts 133°
2026-05-06 07:52 48.86210 16.99514 34836 ft 488 kts 133°
2026-05-06 07:52 48.81925 17.07568 34847 ft 494 kts 133°
2026-05-06 07:53 48.79766 17.11620 34738 ft 496 kts 133°
2026-05-06 07:53 48.77610 17.15658 34439 ft 496 kts 133°
2026-05-06 07:53 48.75462 17.19676 34007 ft 493 kts 133°
2026-05-06 07:53 48.73302 17.23713 33438 ft 487 kts 133°
2026-05-06 07:54 48.71190 17.27654 32743 ft 481 kts 133°
2026-05-06 07:54 48.69101 17.31543 32053 ft 479 kts 133°
2026-05-06 07:54 48.67007 17.35435 31367 ft 478 kts 133°
2026-05-06 07:54 48.64933 17.39286 30687 ft 477 kts 133°
2026-05-06 07:55 48.62848 17.43151 29987 ft 476 kts 132°
2026-05-06 07:55 48.60762 17.47013 29298 ft 475 kts 133°
2026-05-06 07:55 48.58683 17.50856 28604 ft 474 kts 132°
2026-05-06 07:55 48.56599 17.54702 27911 ft 473 kts 132°
2026-05-06 07:56 48.54526 17.58523 27219 ft 471 kts 132°
2026-05-06 07:56 48.52479 17.62292 26533 ft 469 kts 132°
2026-05-06 07:56 48.50418 17.66081 25863 ft 466 kts 133°
2026-05-06 07:56 48.48380 17.69822 25201 ft 463 kts 133°
2026-05-06 07:57 48.46330 17.73580 24533 ft 460 kts 133°
2026-05-06 07:57 48.44315 17.77269 23896 ft 457 kts 133°
2026-05-06 07:57 48.42320 17.80915 23267 ft 453 kts 133°
2026-05-06 07:57 48.40337 17.84535 22639 ft 449 kts 132°
2026-05-06 07:58 48.38361 17.88138 22012 ft 446 kts 133°
2026-05-06 07:58 48.36403 17.91702 21391 ft 442 kts 132°
2026-05-06 07:58 48.34468 17.95221 20777 ft 438 kts 132°
2026-05-06 07:58 48.32527 17.98743 20170 ft 434 kts 132°
2026-05-06 07:59 48.30611 18.02197 19602 ft 429 kts 134°
2026-05-06 07:59 48.28502 18.05263 19047 ft 420 kts 144°
2026-05-06 07:59 48.26168 18.07769 18502 ft 413 kts 148°
2026-05-06 07:59 48.23815 18.10229 17965 ft 409 kts 148°
2026-05-06 08:00 48.21503 18.12594 17459 ft 403 kts 148°
2026-05-06 08:00 48.19205 18.14935 16955 ft 398 kts 148°
2026-05-06 08:00 48.16941 18.17225 16450 ft 394 kts 149°
2026-05-06 08:00 48.14681 18.19501 15944 ft 389 kts 149°
2026-05-06 08:01 48.12458 18.21733 15441 ft 385 kts 149°
2026-05-06 08:01 48.10247 18.23951 14942 ft 382 kts 149°
2026-05-06 08:01 48.08065 18.26135 14437 ft 378 kts 149°
2026-05-06 08:01 48.05884 18.28315 14041 ft 371 kts 149°
2026-05-06 08:02 48.03760 18.30437 13658 ft 365 kts 149°
2026-05-06 08:02 48.01693 18.32497 13292 ft 360 kts 149°
2026-05-06 08:02 47.99625 18.34558 12923 ft 354 kts 149°
2026-05-06 08:02 47.97599 18.36574 12551 ft 349 kts 149°
2026-05-06 08:03 47.95587 18.38574 12183 ft 344 kts 149°
2026-05-06 08:03 47.93620 18.40528 11837 ft 339 kts 149°
2026-05-06 08:03 47.91694 18.42439 11491 ft 334 kts 149°
2026-05-06 08:03 47.89766 18.44351 11139 ft 329 kts 149°
2026-05-06 08:04 47.87884 18.46216 10952 ft 319 kts 149°
2026-05-06 08:04 47.86064 18.47966 10950 ft 302 kts 155°
2026-05-06 08:04 47.84177 18.49009 10959 ft 283 kts 167°
2026-05-06 08:04 47.82318 18.49760 10953 ft 272 kts 167°
2026-05-06 08:05 47.80498 18.50495 10966 ft 275 kts 168°
2026-05-06 08:05 47.78601 18.51242 10981 ft 286 kts 168°
2026-05-06 08:05 47.76682 18.51993 10969 ft 284 kts 168°
2026-05-06 08:05 47.74822 18.52719 10946 ft 271 kts 168°
2026-05-06 08:06 47.73034 18.53414 10948 ft 257 kts 168°
2026-05-06 08:06 47.71347 18.54068 10948 ft 244 kts 168°
2026-05-06 08:06 47.69712 18.54697 10788 ft 244 kts 168°
2026-05-06 08:06 47.68066 18.55328 10561 ft 245 kts 168°
2026-05-06 08:07 47.66436 18.55956 10399 ft 238 kts 168°
2026-05-06 08:07 47.64853 18.56564 10175 ft 237 kts 168°
2026-05-06 08:07 47.63251 18.57188 9937 ft 238 kts 166°
2026-05-06 08:07 47.61826 18.58421 9700 ft 244 kts 139°
2026-05-06 08:08 47.60642 18.60226 9484 ft 245 kts 137°
2026-05-06 08:08 47.59455 18.62032 9245 ft 245 kts 137°
2026-05-06 08:08 47.58270 18.63858 8932 ft 246 kts 137°
2026-05-06 08:08 47.57091 18.65683 8593 ft 245 kts 138°
2026-05-06 08:09 47.55925 18.67496 8251 ft 244 kts 137°
2026-05-06 08:09 47.54753 18.69328 7906 ft 244 kts 136°
2026-05-06 08:09 47.53889 18.71481 7548 ft 249 kts 108°
2026-05-06 08:09 47.53871 18.73985 7272 ft 245 kts 77°
2026-05-06 08:10 47.54689 18.76108 6923 ft 239 kts 46°
2026-05-06 08:10 47.55921 18.77713 6603 ft 236 kts 41°
2026-05-06 08:10 47.57175 18.79288 6255 ft 236 kts 41°
2026-05-06 08:10 47.58414 18.80837 5862 ft 233 kts 41°
2026-05-06 08:11 47.59650 18.82371 5466 ft 231 kts 41°
2026-05-06 08:11 47.60875 18.83887 5075 ft 228 kts 41°
2026-05-06 08:11 47.62080 18.85387 4679 ft 226 kts 45°
2026-05-06 08:11 47.62875 18.87291 4276 ft 217 kts 79°
2026-05-06 08:12 47.62859 18.89455 3917 ft 207 kts 105°
2026-05-06 08:12 47.62564 18.91509 3538 ft 206 kts 105°
2026-05-06 08:12 47.62241 18.93546 3141 ft 203 kts 115°
2026-05-06 08:12 47.61459 18.95146 3001 ft 180 kts 137°
2026-05-06 08:13 47.60622 18.96497 2989 ft 178 kts 135°
2026-05-06 08:13 47.59788 18.97869 2991 ft 180 kts 135°
2026-05-06 08:13 47.58951 18.99241 2973 ft 180 kts 135°
2026-05-06 08:13 47.58111 19.00616 2986 ft 181 kts 136°
2026-05-06 08:14 47.57275 19.01984 2972 ft 179 kts 136°
2026-05-06 08:14 47.56438 19.03347 2972 ft 177 kts 136°
2026-05-06 08:14 47.55611 19.04694 2979 ft 176 kts 135°
2026-05-06 08:14 47.54783 19.06043 2980 ft 177 kts 136°
2026-05-06 08:15 47.53957 19.07383 2984 ft 178 kts 136°
2026-05-06 08:15 47.53112 19.08751 2816 ft 180 kts 136°
2026-05-06 08:15 47.52262 19.10131 2581 ft 183 kts 136°
2026-05-06 08:15 47.51405 19.11519 2347 ft 185 kts 136°
2026-05-06 08:16 47.50531 19.12937 2106 ft 187 kts 136°
2026-05-06 08:16 47.49667 19.14337 1848 ft 181 kts 136°
2026-05-06 08:16 47.48857 19.15655 1664 ft 169 kts 136°
2026-05-06 08:16 47.48071 19.16922 1412 ft 167 kts 136°
2026-05-06 08:17 47.47284 19.18193 1186 ft 168 kts 136°
2026-05-06 08:17 47.46493 19.19470 956 ft 171 kts 136°
2026-05-06 08:17 47.45694 19.20760 727 ft 171 kts 136°
2026-05-06 08:17 47.44890 19.22058 498 ft 170 kts 135°
2026-05-06 08:18 47.44119 19.23292 448 ft 146 kts 132°
2026-05-06 08:18 47.43594 19.24147 436 ft 78 kts 134°
2026-05-06 08:18 47.43370 19.24520 440 ft 32 kts 127°
2026-05-06 08:18 47.43225 19.24751 446 ft 28 kts 131°
2026-05-06 08:19 47.43124 19.24910 450 ft 11 kts 133°
2026-05-06 08:19 47.43098 19.25002 452 ft 7 kts 91°
2026-05-06 08:19 47.43111 19.25064 455 ft 6 kts 59°
2026-05-06 08:19 47.43137 19.25107 456 ft 6 kts 43°
2026-05-06 08:20 47.43199 19.25182 459 ft 14 kts 36°
2026-05-06 08:20 47.43272 19.25296 463 ft 15 kts 39°
2026-05-06 08:20 47.43355 19.25404 467 ft 15 kts 42°
2026-05-06 08:20 47.43440 19.25518 470 ft 17 kts 40°
2026-05-06 08:21 47.43534 19.25645 472 ft 19 kts 43°
2026-05-06 08:21 47.43637 19.25768 477 ft 19 kts 36°
2026-05-06 08:21 47.43701 19.25851 478 ft 5 kts 42°
2026-05-06 08:21 47.43739 19.25913 479 ft 15 kts 51°
2026-05-06 08:22 47.43823 19.26028 481 ft 16 kts 41°
2026-05-06 08:22 47.43902 19.26141 481 ft 15 kts 50°
2026-05-06 08:22 47.43882 19.26259 481 ft 12 kts 134°
2026-05-06 08:22 47.43809 19.26378 480 ft 19 kts 131°
2026-05-06 08:23 47.43716 19.26529 478 ft 20 kts 134°
2026-05-06 08:23 47.43621 19.26685 476 ft 20 kts 130°
2026-05-06 08:23 47.43522 19.26849 471 ft 22 kts 133°
2026-05-06 08:23 47.43411 19.27028 465 ft 25 kts 131°
2026-05-06 08:24 47.43288 19.27221 457 ft 24 kts 133°
2026-05-06 08:24 47.43167 19.27414 450 ft 26 kts 133°
2026-05-06 08:24 47.43045 19.27615 444 ft 25 kts 132°
2026-05-06 08:24 47.42947 19.27773 439 ft 20 kts 132°
2026-05-06 08:25 47.42862 19.27908 436 ft 12 kts 146°
2026-05-06 08:25 47.42799 19.27869 437 ft 9 kts 222°
2026-05-06 08:25 47.42780 19.27810 438 ft 2 kts 288°
2026-05-06 08:25 47.42795 19.27792 439 ft 5 kts 328°
2026-05-06 08:26 47.42822 19.27752 440 ft 5 kts 313°
2026-05-06 08:26 47.42828 19.27744 440 ft 0 kts 311°